Theta_e
309 308 309 309 308 309 311 309 309 308 308 311 311 310 308 304 302 303 301 300 298 297 296 295 295 295 296 298 300 301 304 306 310 312 310 306 303 304 304 304 305 309 313 315
309 309 309 309 308 309 309 310 309 309 310 311 311 311 305 304 303 302 300 299 298 297 296 295 294 294 294 295 296 297 298 301 302 304 303 301 301 299 299 299 300 301 303 306
312 313 310 309 310 310 310 311 312 312 311 309 310 310 308 304 302 300 299 298 297 296 295 294 294 293 293 294 294 295 296 296 297 299 300 299 299 298 298 296 296 296 298 299
310 310 311 310 311 310 314 311 312 312 311 312 309 313 308 304 302 300 299 297 296 295 294 294 293 293 292 291 292 293 293 293 293 294 294 293 291 290 290 290 290 291 292 292
315 314 312 313 312 312 314 310 310 310 309 310 310 311 309 304 305 302 299 297 296 294 293 292 293 292 292 290 289 289 289 289 289 289 289 288 288 287 286 287 287 287 287 287
313 309 309 310 309 310 309 308 308 307 308 312 310 311 312 306 306 302 300 297 296 294 293 292 292 291 291 290 289 288 288 287 287 288 287 287 287 287 287 286 286 286 286 286
311 311 309 308 309 308 307 307 312 314 313 316 310 311 311 306 304 302 300 297 295 293 292 291 290 290 290 289 289 288 288 287 287 287 287 287 286 286 286 286 286 286 286 286
314 315 310 307 309 310 307 308 313 314 315 315 310 315 311 302 301 300 298 295 293 292 291 290 290 290 289 289 288 288 288 288 288 288 288 288 287 287 287 287 287 287 286 286
314 314 308 307 308 309 309 310 310 310 295 308 311 309 304 301 300 298 296 294 292 292 291 290 290 289 289 288 288 288 288 288 288 288 288 288 288 287 287 287 287 287 286 286
312 313 310 309 308 307 309 308 313 309 309 310 311 310 311 303 301 297 296 294 292 291 289 288 289 289 289 288 288 288 288 288 288 287 287 287 287 287 287 287 287 286 286 286
309 311 311 310 309 310 309 309 310 310 309 307 306 308 305 305 302 298 296 295 293 290 288 287 288 289 289 289 288 288 288 287 287 287 287 287 287 287 286 286 286 285 285 285
310 311 309 311 307 306 307 309 309 315 312 308 309 311 301 304 301 299 297 296 292 290 287 287 289 289 289 289 288 288 288 287 287 287 286 286 286 286 286 286 285 285 284 282
311 312 306 311 307 307 308 308 307 306 304 308 310 310 300 300 299 298 298 296 293 290 287 287 287 287 288 288 287 287 287 287 287 287 287 286 286 286 286 285 284 282 280 280
308 307 308 314 308 306 307 308 306 305 304 307 307 304 302 301 300 297 295 294 291 289 288 286 286 287 288 287 287 287 287 287 287 286 286 285 284 283 281 280 279 278 278 278
307 311 306 305 306 306 305 307 306 304 304 307 305 305 302 300 298 296 292 289 286 286 285 284 285 286 286 286 286 287 286 286 285 284 283 281 280 279 278 277 277 276 275 275
300 307 303 304 298 299 303 303 305 304 304 301 302 304 298 296 288 288 287 286 286 286 285 285 286 286 286 286 286 286 285 284 282 280 279 278 277 276 275 275 274 273 272 271
301 300 301 305 292 293 297 297 303 304 301 303 303 301 290 287 289 287 286 285 286 286 286 285 286 286 286 286 285 283 282 280 278 277 276 275 274 273 273 272 271 270 270 269
296 294 292 293 287 292 295 289 291 299 295 294 292 288 288 290 287 286 285 285 286 286 285 285 286 286 285 284 283 281 278 277 276 275 274 273 272 271 270 269 268 268 267 267
295 296 291 297 288 291 294 290 289 291 291 289 292 290 289 286 286 286 285 284 285 284 286 286 286 285 283 281 279 277 275 274 273 272 272 271 270 269 268 267 266 266 265 264
293 294 299 280 290 291 287 286 286 287 289 283 285 286 287 286 285 286 284 284 285 286 286 285 284 281 279 277 276 274 273 272 271 271 270 269 268 267 266 265 264 264 263 263
291 293 299 287 292 286 287 287 288 287 289 283 286 285 285 285 287 286 284 284 286 285 284 283 280 279 277 275 273 272 271 270 270 269 267 267 266 265 265 264 264 263 262 262
289 292 288 291 293 292 287 287 289 289 288 288 286 286 286 287 286 285 284 284 283 282 281 280 278 276 274 273 271 270 269 269 268 266 265 265 265 265 264 263 263 262 261 261
288 288 287 290 290 288 287 287 288 288 288 287 287 287 286 286 285 285 285 283 282 281 279 278 276 274 272 271 270 268 268 267 265 264 264 265 265 264 263 262 262 261 261 261
286 285 286 286 288 287 288 288 287 287 287 287 287 286 284 284 284 284 284 282 280 279 277 275 273 271 271 269 268 267 266 265 264 264 264 264 263 263 262 262 261 261 261 261
288 286 283 285 287 287 287 287 288 287 286 286 285 285 284 284 284 283 282 280 279 277 275 273 271 270 269 267 267 266 265 265 264 263 263 263 262 262 261 261 261 261 263 263
286 286 287 287 288 288 289 288 287 287 286 285 284 284 283 284 283 282 280 280 277 275 273 271 269 268 267 266 267 266 265 264 263 262 262 262 261 261 260 260 261 262 264 265
Wind_Speed
0 4 8 12 10 2 3 5 5 4 6 0 6 5 6 11 8 9 8 9 10 10 11 20 25 29 34 37 37 36 33 29 23 21 24 27 27 25 24 23 21 16 11 9
3 7 11 3 5 6 5 5 6 4 6 4 5 7 5 10 5 6 8 8 8 7 10 16 21 28 34 35 37 39 38 33 29 27 24 20 16 24 26 24 23 22 20 16
8 6 4 8 6 6 5 6 4 7 3 3 1 4 2 5 8 10 8 8 7 7 8 9 18 23 30 34 34 35 36 35 33 29 26 24 23 26 27 28 27 26 22 20
7 5 6 4 6 8 4 7 7 4 4 4 1 4 3 4 5 6 5 5 5 6 7 9 13 19 25 28 30 32 33 33 32 30 31 31 30 26 23 24 25 26 25 25
6 4 4 5 9 6 7 4 5 3 3 1 2 2 3 7 4 4 4 4 5 5 5 6 12 19 22 24 27 30 31 32 31 31 30 29 29 25 25 26 26 27 27 27
5 1 3 6 2 6 5 5 6 4 3 2 8 7 4 6 7 8 5 6 7 5 5 9 14 18 21 22 25 27 29 29 28 28 29 28 27 26 27 28 30 30 28 28
2 4 2 3 4 2 3 5 1 2 1 5 4 3 3 6 3 15 16 8 7 6 6 5 10 15 18 20 21 23 24 26 24 25 26 24 24 24 25 26 27 28 30 31
6 4 8 5 6 6 6 7 5 7 4 3 1 6 3 2 8 13 12 10 7 7 5 6 10 11 14 16 16 18 20 21 21 22 22 21 21 23 23 24 26 27 29 31
6 5 1 3 3 5 5 5 3 5 3 3 4 1 1 4 7 10 10 9 8 7 7 7 10 11 12 13 13 14 14 14 15 15 15 17 20 22 22 23 24 27 28 30
6 2 1 1 2 2 4 5 2 2 2 5 4 5 4 8 12 10 10 10 8 7 7 7 10 11 11 10 9 7 6 5 4 2 2 6 9 11 14 16 17 20 25 29
5 3 2 3 6 7 2 1 0 2 4 5 2 5 2 15 17 17 13 11 10 8 8 7 12 11 10 8 6 4 3 1 3 7 8 10 12 14 16 19 21 23 27 31
5 4 4 7 1 2 2 7 7 5 5 2 2 8 7 8 15 14 13 10 7 7 8 11 15 13 10 8 5 2 3 6 9 13 14 15 17 18 21 24 28 31 35 37
7 1 2 6 1 2 4 4 4 4 3 8 6 6 5 6 8 8 8 8 8 8 8 7 9 12 12 7 2 3 4 7 11 14 14 15 18 22 27 31 34 37 38 38
4 3 8 12 5 4 4 5 5 5 4 5 8 3 3 5 8 7 6 7 7 7 8 7 8 12 9 4 1 2 3 5 8 11 15 19 23 27 30 33 35 36 36 38
3 6 2 2 4 2 1 4 10 8 7 9 5 9 11 10 9 8 7 6 7 8 7 7 6 9 7 7 4 2 2 6 11 16 19 22 25 29 31 33 32 33 34 32
2 4 3 1 4 4 4 9 7 6 4 6 3 17 8 4 5 6 9 9 8 7 7 7 9 10 9 6 4 3 6 10 14 17 20 23 27 27 25 26 29 29 30 29
5 6 4 5 3 3 8 10 17 11 7 10 13 12 6 5 8 10 9 9 8 7 7 8 9 11 10 9 5 4 8 12 15 18 20 23 23 24 26 28 31 31 31 31
5 5 2 3 2 3 3 1 3 15 5 7 0 3 4 5 5 6 7 9 8 7 8 8 12 11 10 7 6 7 9 13 16 18 21 20 22 27 28 29 29 31 30 29
2 5 2 4 4 7 6 6 7 7 9 9 9 4 3 4 4 1 6 6 7 7 12 14 15 12 11 8 7 8 11 13 15 18 15 19 25 30 32 33 31 30 30 30
2 4 2 3 5 9 5 3 3 4 6 7 6 6 7 6 2 5 9 6 9 10 13 18 16 11 8 6 6 8 11 12 16 12 18 24 24 27 32 33 34 32 30 31
3 1 9 4 5 9 5 4 1 6 7 4 7 6 7 5 6 4 7 7 12 14 17 15 12 10 8 7 7 8 9 13 12 19 21 22 25 28 31 33 33 34 34 29
7 8 4 3 4 10 6 5 7 5 2 6 6 7 8 8 5 7 7 7 10 15 16 14 13 10 8 6 6 7 11 13 18 19 22 25 26 27 29 31 34 32 31 29
2 7 6 10 7 1 9 5 8 6 6 6 6 6 9 8 8 8 7 7 13 20 18 16 12 9 6 6 6 8 12 15 17 19 23 26 27 28 27 29 31 28 26 25
5 4 3 4 4 5 9 8 4 8 8 7 7 8 8 9 9 9 6 6 11 17 17 14 10 8 7 7 7 10 12 14 17 21 25 27 27 28 27 26 26 24 25 24
6 7 6 3 4 2 6 9 11 8 7 4 6 7 10 9 8 8 5 7 15 18 15 14 11 9 8 7 8 9 11 14 17 21 25 27 24 25 26 24 25 26 27 27
7 6 4 5 8 6 7 9 13 10 9 11 10 8 8 11 10 8 6 15 18 18 15 12 10 8 7 7 8 8 10 11 14 19 22 24 23 23 23 23 27 29 27 29
Wind_Direction
131 121 205 206 202 184 179 196 222 255 269 315 246 245 338 338 42 97 96 87 77 63 50 46 50 58 64 66 67 64 69 70 82 83 76 68 63 62 60 55 49 42 27 12
60 224 229 132 173 207 239 243 253 280 264 169 270 282 55 34 39 87 97 81 75 71 52 43 45 54 60 62 64 66 67 69 72 76 80 78 76 62 54 50 44 39 37 34
189 210 157 180 192 192 207 197 211 222 322 286 281 289 149 56 68 72 65 89 86 80 67 45 47 54 64 67 67 68 66 65 69 78 87 87 78 64 53 47 46 42 38 34
244 236 190 176 220 157 208 212 220 221 138 228 83 268 169 120 75 78 78 74 86 90 83 73 60 60 68 72 75 75 72 69 66 64 65 66 67 65 55 49 46 43 39 35
236 192 174 188 220 161 227 151 170 168 151 47 284 97 257 130 158 157 131 112 85 69 82 76 83 87 82 77 75 75 72 68 68 65 62 62 61 57 50 44 40 35 32 30
224 284 207 204 98 162 140 97 47 57 89 255 224 174 226 191 187 156 159 147 129 124 100 92 91 86 81 78 76 72 69 66 62 59 58 52 48 44 40 33 28 23 20 18
224 226 241 169 106 46 100 96 307 347 341 230 130 132 272 327 233 162 154 153 152 142 129 112 92 85 81 76 74 72 68 64 59 57 53 49 44 40 34 29 21 14 10 7
167 242 174 191 192 180 185 166 166 211 201 241 103 232 241 32 106 126 142 152 152 154 149 129 117 109 99 89 81 75 68 62 53 49 47 41 34 31 26 19 12 6 2 357
164 267 163 157 142 145 191 186 175 102 28 51 224 338 152 120 122 135 151 160 170 170 164 150 140 119 107 95 85 77 72 63 53 45 35 27 21 17 8 2 357 354 351 346
197 150 136 142 97 22 166 164 89 14 169 238 272 267 207 194 180 172 177 185 187 176 162 160 152 143 133 123 117 117 114 107 97 118 58 24 13 4 356 347 341 339 336 333
149 134 234 112 197 183 134 200 101 157 154 179 248 256 245 192 182 182 187 192 187 179 180 174 178 170 160 155 159 168 184 225 330 347 338 332 337 337 335 335 332 327 324 324
190 142 172 201 125 306 234 205 170 196 218 225 160 256 327 181 176 173 189 193 176 179 182 184 188 182 183 191 200 243 312 332 344 344 334 326 327 332 332 330 327 324 322 321
182 57 47 341 340 3 223 202 155 109 62 207 191 256 25 105 141 173 175 186 176 177 181 186 194 202 207 208 234 335 16 2 349 341 340 334 329 324 323 321 319 318 318 317
38 113 184 220 192 130 182 201 193 156 177 176 224 208 193 169 166 184 180 167 172 172 178 192 204 211 216 211 58 46 350 353 349 336 331 325 322 320 319 317 317 316 315 313
107 238 175 10 29 53 268 229 187 192 210 208 243 223 190 192 194 201 190 169 160 166 175 180 180 180 177 177 164 119 349 329 326 323 321 321 319 317 317 318 318 314 313 312
195 187 125 171 16 24 284 238 217 227 211 266 246 269 166 195 110 159 182 169 170 180 182 194 189 183 183 181 185 241 297 312 317 319 319 320 320 321 320 315 314 312 311 310
160 134 132 229 31 44 287 222 209 215 209 207 226 241 164 174 195 182 178 178 174 181 198 193 195 197 189 181 201 268 299 309 316 320 321 321 320 316 316 313 311 311 310 309
132 99 63 137 31 215 261 346 346 229 254 207 284 202 184 175 188 172 183 167 177 195 206 206 201 189 177 194 239 277 301 313 316 318 319 319 316 314 313 312 309 308 307 306
58 129 119 172 197 310 267 200 176 171 254 194 210 177 129 104 85 250 201 184 187 204 225 213 197 188 195 217 244 287 306 309 312 316 310 310 312 315 316 313 310 307 305 303
57 34 150 127 173 218 247 271 156 103 279 218 160 160 158 145 139 238 199 193 217 227 202 183 177 181 194 211 263 294 303 303 309 301 303 309 311 310 309 309 309 308 303 301
117 139 213 196 227 283 222 199 137 110 242 149 173 179 153 182 197 183 160 197 221 201 181 175 175 186 200 222 259 291 296 299 293 300 308 306 308 311 313 312 311 311 306 302
157 164 200 149 203 265 155 84 174 200 99 161 189 189 185 217 198 195 193 203 182 169 169 180 180 189 204 234 270 287 292 299 304 309 309 312 314 316 317 316 314 308 305 300
241 192 184 188 205 220 199 186 199 177 162 200 182 199 198 207 215 208 226 210 191 185 183 191 194 198 219 247 276 292 303 308 309 310 314 319 320 320 319 311 307 303 301 299
245 158 200 100 223 211 213 234 235 201 208 184 197 194 182 201 214 228 221 194 178 182 184 189 190 204 225 241 278 298 306 309 313 318 321 325 321 318 316 310 302 297 295 299
197 128 149 264 267 97 267 233 238 215 226 220 228 208 201 199 228 217 217 180 182 182 187 190 198 213 223 252 286 307 311 311 317 320 323 324 320 314 311 306 303 298 297 298
162 152 166 214 213 175 223 219 223 217 217 225 213 228 225 197 223 200 205 187 180 183 186 192 204 221 238 268 290 299 304 310 317 316 321 320 317 313 309 307 307 309 307 307